GW1885 Weather Reports


Display with metric or nautical units.
time (UTC)temp
F
wind
direction
speed
MPH
gust
MPH
rain 1hr
in
rain 24hr
in
rain mn
in
humidity
%
barometer
mb
20260831042005 58 110 1.0 3.0 0.00 0.00 0.00 99 1011.2
20260831041504 58 108 1.0 2.0 0.00 0.00 0.00 99 1011.4
20260831041005 57 108 1.0 2.0 0.00 0.00 0.00 99 1011.5
20260831040504 57 108 1.0 2.0 0.00 0.00 0.00 99 1011.4
20260831040026 57 108 1.0 3.0 0.00 0.00 0.00 99 1011.4
20260831035525 57 108 2.0 3.0 0.00 0.00 0.00 99 1011.3
20260831035005 57 108 2.0 2.0 0.00 0.00 0.00 99 1011.3
20260831034505 57 108 2.0 2.0 0.00 0.00 0.00 99 1011.3
20260831034026 57 108 2.0 3.0 0.00 0.00 0.00 99 1011.1
20260831033504 57 107 2.0 3.0 0.00 0.00 0.00 99 1011.4
20260831033005 57 109 2.0 3.0 0.00 0.00 0.00 99 1011.4
20260831032505 57 111 2.0 3.0 0.00 0.00 0.00 99 1011.3
20260831032005 57 112 1.0 3.0 0.00 0.00 0.00 99 1011.3
20260831031504 57 112 1.0 3.0 0.00 0.00 0.00 99 1011.4
20260831031004 58 112 2.0 3.0 0.00 0.00 0.00 99 1011.4
20260831030504 58 114 2.0 4.0 0.00 0.00 0.00 99 1011.4
20260831030004 57 110 2.0 4.0 0.00 0.00 0.00 99 1011.5
20260831025504 57 104 2.0 4.0 0.00 0.00 0.00 99 1011.5
20260831025004 57 104 2.0 3.0 0.00 0.00 0.00 99 1011.6
20260831024504 57 103 2.0 3.0 0.00 0.00 0.00 99 1011.5
20260831024005 57 102 2.0 4.0 0.00 0.00 0.00 98 1011.6
20260831023504 57 100 2.0 4.0 0.00 0.00 0.00 99 1011.3
20260831023004 56 99 2.0 3.0 0.00 0.00 0.00 98 1011.4
20260831022505 56 91 2.0 3.0 0.00 0.00 0.00 98 1011.4
20260831022005 57 82 1.0 3.0 0.00 0.00 0.00 98 1011.3
20260831021505 57 81 1.0 2.0 0.00 0.00 0.00 98 1011.4
20260831021006 57 82 2.0 2.0 0.00 0.00 0.00 98 1011.3
20260831020504 58 81 1.0 2.0 0.00 0.00 0.00 98 1011.4
20260831020026 58 79 1.0 2.0 0.00 0.00 0.00 98 1011.3
20260831015525 58 82 1.0 2.0 0.00 0.00 0.00 98 1011.5
20260831015025 58 86 2.0 3.0 0.00 0.00 0.00 98 1011.4
20260831014504 58 86 2.0 3.0 0.00 0.00 0.00 98 1011.5
20260831014005 58 84 1.0 3.0 0.00 0.00 0.00 98 1011.5
20260831013504 58 84 1.0 2.0 0.00 0.00 0.00 97 1011.3
20260831013006 58 82 1.0 2.0 0.00 0.00 0.00 97 1011.3
20260831012526 58 83 1.0 3.0 0.00 0.00 0.00 97 1011.5
20260831012025 58 87 1.0 3.0 0.00 0.00 0.00 97 1011.3
20260831011505 58 90 1.0 3.0 0.00 0.00 0.00 97 1011.3
20260831011004 58 63 1.0 3.0 0.00 0.00 0.00 97 1011.4
20260831010504 58 16 1.0 2.0 0.00 0.00 0.00 96 1011.2
20260831010005 59 16 1.0 2.0 0.00 0.00 0.00 96 1011.4
20260831005505 59 16 0.0 2.0 0.00 0.00 0.00 96 1011.4
20260831005026 59 0 0.0 0.0 0.00 0.00 0.00 95 1011.4
20260831004505 59 0 0.0 0.0 0.00 0.00 0.00 95 1011.3
20260831004025 60 16 0.0 1.0 0.00 0.00 0.00 94 1011.3
20260831003504 60 16 0.0 1.0 0.00 0.00 0.00 94 1011.4
20260831003026 60 16 0.0 2.0 0.00 0.00 0.00 93 1011.5
20260831002504 61 16 0.0 2.0 0.00 0.00 0.00 93 1011.6
20260831002005 61 358 1.0 2.0 0.00 0.00 0.00 93 1011.5
20260831001504 61 13 1.0 2.0 0.00 0.00 0.00 92 1011.6
20260831001026 62 57 1.0 2.0 0.00 0.00 0.00 92 1011.4
20260831000504 62 12 1.0 3.0 0.00 0.00 0.00 92 1011.5
20260831000006 62 357 1.0 3.0 0.00 0.00 0.00 91 1011.3
20260830235505 62 20 1.0 3.0 0.00 0.00 0.00 91 1011.4
20260830235004 62 35 1.0 3.0 0.00 0.00 0.00 91 1011.4
20260830234504 62 22 1.0 2.0 0.00 0.00 0.00 91 1011.3
20260830234004 62 7 1.0 2.0 0.00 0.00 0.00 91 1011.4
20260830233504 62 8 1.0 2.0 0.00 0.00 0.00 90 1011.4
20260830233006 62 40 1.0 3.0 0.00 0.00 0.00 90 1011.4
20260830232504 63 28 1.0 3.0 0.00 0.00 0.00 90 1011.3
20260830232005 63 1 1.0 3.0 0.00 0.00 0.00 89 1011.4
20260830231505 63 13 1.0 3.0 0.00 0.00 0.00 89 1011.3
20260830231025 63 29 1.0 3.0 0.00 0.00 0.00 88 1011.2
20260830230504 64 29 1.0 3.0 0.00 0.00 0.00 88 1011.2
20260830230025 64 27 1.0 3.0 0.00 0.00 0.00 88 1011.3
20260830225505 64 34 1.0 3.0 0.00 0.00 0.00 88 1011.3
20260830225005 64 52 1.0 3.0 0.00 0.00 0.00 87 1011.0
20260830224525 64 50 1.0 3.0 0.00 0.00 0.00 88 1011.0
20260830224004 64 41 1.0 4.0 0.00 0.00 0.00 88 1011.1
20260830223526 64 27 1.0 4.0 0.00 0.00 0.00 88 1011.2
20260830223005 64 24 1.0 4.0 0.00 0.00 0.00 88 1011.1
20260830222505 64 49 1.0 8.0 0.00 0.00 0.00 88 1011.0
20260830222004 64 68 1.0 8.0 0.00 0.00 0.00 88 1011.1
20260830221505 64 66 1.0 3.0 0.00 0.00 0.00 88 1011.1
20260830221005 64 66 1.0 3.0 0.00 0.00 0.00 87 1011.2
20260830220503 65 65 1.0 3.0 0.00 0.00 0.00 86 1011.1
20260830220028 65 53 1.0 3.0 0.00 0.00 0.00 86 1011.0
20260830215504 64 28 1.0 4.0 0.00 0.00 0.00 87 1011.1
20260830215005 63 20 1.0 8.0 0.00 0.00 0.00 91 1011.1
20260830214504 62 157 1.0 8.0 0.00 0.00 0.00 95 1011.1
20260830214004 61 173 1.0 3.0 0.00 0.01 0.00 95 1011.1
20260830213525 62 173 1.0 3.0 0.00 0.01 0.00 96 1010.9
20260830213004 61 173 1.0 3.0 0.00 0.01 0.00 96 1010.9
20260830212504 61 173 0.0 3.0 0.00 0.01 0.00 96 1010.9
20260830212004 61 173 0.0 3.0 0.00 0.01 0.00 96 1010.8
20260830211504 61 173 0.0 2.0 0.00 0.01 0.00 95 1010.6
20260830211025 61 173 1.0 2.0 0.00 0.01 0.00 95 1010.6
20260830210504 61 173 1.0 3.0 0.00 0.01 0.00 95 1010.7
20260830210004 61 173 1.0 3.0 0.00 0.01 0.00 95 1010.5
20260830205505 61 173 1.0 3.0 0.00 0.01 0.00 95 1010.6
20260830205025 61 173 1.0 3.0 0.00 0.01 0.00 95 1010.5
20260830204505 61 173 1.0 3.0 0.00 0.01 0.00 95 1010.4
20260830204026 61 173 1.0 2.0 0.00 0.01 0.00 95 1010.4
20260830203504 61 173 1.0 2.0 0.00 0.01 0.00 95 1010.6
20260830203005 61 173 1.0 2.0 0.00 0.01 0.00 95 1010.4
20260830202526 61 173 2.0 2.0 0.00 0.01 0.00 94 1010.3
20260830202004 61 173 1.0 2.0 0.00 0.01 0.00 94 1010.4
20260830201503 61 173 1.0 2.0 0.00 0.01 0.00 94 1010.4
20260830201005 61 173 1.0 2.0 0.00 0.01 0.00 94 1010.3
20260830200505 61 173 0.0 1.0 0.00 0.01 0.00 93 1010.3
20260830200005 62 173 0.0 2.0 0.00 0.01 0.00 93 1010.3
20260830195505 62 173 1.0 3.0 0.00 0.01 0.00 93 1010.2
20260830195005 62 173 1.0 3.0 0.00 0.01 0.00 93 1010.2
20260830194505 62 173 1.0 2.0 0.00 0.01 0.00 93 1010.2
20260830194005 62 173 1.0 2.0 0.00 0.01 0.00 94 1010.0
20260830193504 62 173 1.0 2.0 0.00 0.01 0.00 94 1010.2
20260830193004 62 173 1.0 3.0 0.00 0.01 0.00 93 1010.1
20260830192504 62 173 1.0 3.0 0.00 0.01 0.00 93 1010.0
20260830192004 62 173 1.0 2.0 0.00 0.01 0.00 93 1010.0
20260830191505 62 173 1.0 1.0 0.00 0.01 0.00 93 1010.1
20260830191025 62 173 0.0 1.0 0.00 0.01 0.00 92 1010.1
20260830190005 63 173 0.0 1.0 0.00 0.01 0.00 92 1010.1
20260830185504 63 173 0.0 1.0 0.00 0.01 0.00 91 1009.9
20260830185004 63 173 0.0 1.0 0.00 0.01 0.00 91 1010.1
20260830184504 63 173 0.0 1.0 0.00 0.01 0.00 90 1010.2
20260830184004 64 173 0.0 1.0 0.00 0.01 0.00 90 1010.0
20260830183504 64 173 0.0 1.0 0.00 0.01 0.00 88 1010.1
20260830183025 65 173 0.0 2.0 0.00 0.01 0.00 88 1010.1
20260830182503 65 173 1.0 2.0 0.00 0.01 0.00 87 1009.7
20260830182004 65 173 0.0 2.0 0.00 0.01 0.00 87 1009.9
20260830181505 66 173 0.0 1.0 0.00 0.01 0.00 86 1009.8
20260830181006 66 173 0.0 1.0 0.00 0.01 0.00 86 1009.8
20260830180504 66 173 0.0 1.0 0.00 0.01 0.00 85 1009.7
20260830180025 67 173 0.0 1.0 0.00 0.01 0.00 84 1009.5
20260830175504 67 173 0.0 1.0 0.00 0.01 0.00 84 1009.6
20260830175004 67 173 0.0 2.0 0.00 0.01 0.00 83 1009.5
20260830174504 68 172 1.0 3.0 0.00 0.01 0.00 81 1009.5
20260830174003 68 140 1.0 4.0 0.00 0.01 0.00 81 1009.4
20260830173504 68 134 1.0 4.0 0.00 0.01 0.00 81 1009.4
20260830173005 68 139 1.0 4.0 0.00 0.01 0.00 81 1009.2
20260830172504 68 133 2.0 4.0 0.00 0.01 0.00 81 1009.2
20260830172004 68 137 3.0 6.0 0.00 0.01 0.00 80 1009.0
20260830171525 69 139 3.0 6.0 0.00 0.01 0.00 79 1009.1
20260830171026 69 143 3.0 7.0 0.00 0.01 0.00 78 1008.9
20260830170504 70 140 3.0 7.0 0.00 0.01 0.00 78 1008.7
20260830170005 70 137 4.0 10.0 0.00 0.01 0.00 77 1008.9
20260830165503 71 137 4.0 10.0 0.00 0.01 0.00 75 1008.7
20260830165004 71 136 4.0 10.0 0.00 0.01 0.00 75 1008.9
20260830164504 71 137 5.0 9.0 0.00 0.01 0.00 75 1008.7
20260830164005 71 135 4.0 9.0 0.00 0.01 0.00 75 1008.8
20260830163504 71 137 4.0 9.0 0.00 0.01 0.00 76 1008.8
20260830163005 71 141 5.0 9.0 0.00 0.01 0.00 75 1008.8
20260830162503 71 142 5.0 10.0 0.00 0.01 0.00 74 1008.5
20260830162004 71 142 5.0 11.0 0.00 0.01 0.00 74 1008.7
20260830161505 72 142 5.0 14.0 0.00 0.01 0.00 73 1008.6
20260830161004 72 141 6.0 14.0 0.00 0.01 0.00 73 1008.5
20260830160504 72 140 6.0 11.0 0.00 0.01 0.00 72 1008.8
20260830160026 72 139 5.0 10.0 0.00 0.01 0.00 71 1008.7
20260830155524 73 138 4.0 10.0 0.00 0.01 0.00 71 1008.7
20260830155004 73 137 4.0 10.0 0.00 0.01 0.00 71 1008.7
20260830154503 73 133 4.0 10.0 0.00 0.01 0.00 71 1008.8
20260830154005 74 137 4.0 10.0 0.00 0.01 0.00 70 1008.9
20260830153504 74 143 3.0 7.0 0.00 0.01 0.00 70 1008.8
20260830153004 74 137 3.0 10.0 0.00 0.01 0.00 69 1008.7
20260830152504 74 132 3.0 10.0 0.00 0.01 0.00 68 1008.8
20260830152004 74 132 3.0 7.0 0.00 0.01 0.00 69 1008.6
20260830151503 74 132 3.0 11.0 0.00 0.01 0.00 69 1008.7
20260830151004 74 127 4.0 11.0 0.00 0.01 0.00 68 1008.7
20260830150504 74 129 5.0 10.0 0.00 0.01 0.00 67 1008.7
20260830150004 74 132 5.0 10.0 0.00 0.01 0.00 65 1008.8
20260830145503 74 134 4.0 10.0 0.00 0.01 0.00 66 1008.8
20260830145025 74 131 5.0 13.0 0.00 0.01 0.00 67 1008.6
20260830144505 76 134 6.0 15.0 0.00 0.01 0.00 63 1008.7
20260830144026 76 138 6.0 15.0 0.00 0.01 0.00 63 1008.7
20260830143504 76 130 6.0 14.0 0.00 0.01 0.00 62 1008.6
20260830143004 76 126 6.0 13.0 0.00 0.01 0.00 61 1008.8
20260830142505 77 131 6.0 15.0 0.00 0.01 0.00 63 1008.7
20260830142004 76 132 6.0 15.0 0.00 0.01 0.00 63 1008.5
20260830141504 77 128 6.0 14.0 0.00 0.01 0.00 60 1008.6
20260830141004 77 128 6.0 14.0 0.00 0.01 0.00 62 1008.7
20260830140504 77 132 6.0 14.0 0.00 0.01 0.00 61 1008.6
20260830140005 76 134 6.0 17.0 0.00 0.01 0.00 62 1008.5
20260830135504 77 138 6.0 17.0 0.00 0.01 0.00 60 1008.6
20260830135004 76 137 5.0 15.0 0.00 0.01 0.00 61 1008.7
20260830134504 77 128 4.0 9.0 0.00 0.01 0.00 62 1008.8
20260830134004 76 128 4.0 8.0 0.00 0.01 0.00 62 1008.7
20260830133504 77 130 4.0 10.0 0.00 0.01 0.00 62 1008.5
20260830133004 77 131 5.0 15.0 0.00 0.01 0.00 63 1008.8
20260830132504 78 136 5.0 15.0 0.00 0.01 0.00 59 1008.8
20260830132025 78 138 6.0 16.0 0.00 0.01 0.00 63 1008.7
20260830131503 77 137 8.0 16.0 0.00 0.01 0.00 62 1008.6
20260830131004 76 138 7.0 16.0 0.00 0.01 0.00 63 1008.8
20260830130504 75 137 7.0 19.0 0.00 0.01 0.00 63 1008.8
20260830130026 75 134 6.0 19.0 0.00 0.01 0.00 64 1008.7
20260830125505 75 118 4.0 11.0 0.00 0.01 0.00 64 1008.8
20260830125004 76 123 4.0 13.0 0.00 0.01 0.00 64 1008.6
20260830124505 77 128 5.0 13.0 0.00 0.01 0.00 61 1009.0
20260830124005 74 124 5.0 14.0 0.00 0.01 0.00 65 1008.8
20260830123504 75 126 6.0 14.0 0.00 0.01 0.00 64 1008.8
20260830123004 76 135 6.0 18.0 0.00 0.01 0.00 64 1008.8
20260830122525 77 138 7.0 18.0 0.00 0.01 0.00 61 1008.8
20260830122004 76 135 7.0 17.0 0.00 0.01 0.00 66 1008.9
20260830121504 76 140 7.0 14.0 0.00 0.01 0.00 63 1008.7
20260830121004 76 141 7.0 17.0 0.00 0.01 0.00 67 1008.8
20260830120524 75 133 7.0 18.0 0.00 0.01 0.00 66 1008.9
20260830120004 76 130 6.0 18.0 0.00 0.01 0.00 63 1008.9
20260830115503 76 131 6.0 18.0 0.00 0.01 0.00 65 1008.8
20260830115003 76 136 6.0 11.0 0.00 0.01 0.00 65 1009.0
20260830114525 76 139 6.0 15.0 0.00 0.01 0.00 65 1008.9
20260830114005 77 144 8.0 21.0 0.00 0.01 0.00 63 1009.0
20260830113525 76 144 8.0 21.0 0.00 0.01 0.00 64 1009.0
20260830113004 75 136 6.0 16.0 0.00 0.01 0.00 66 1008.8
20260830112504 75 134 7.0 16.0 0.00 0.01 0.00 65 1009.0
20260830112025 75 134 7.0 16.0 0.00 0.01 0.00 66 1009.1
20260830111503 75 136 8.0 18.0 0.00 0.01 0.00 64 1009.0
20260830111025 76 142 7.0 18.0 0.00 0.01 0.00 65 1009.0
20260830110524 75 142 7.0 16.0 0.00 0.01 0.00 66 1008.9
20260830110005 75 143 7.0 16.0 0.00 0.01 0.00 66 1008.9
20260830105503 76 139 7.0 16.0 0.00 0.01 0.00 63 1009.1
20260830105003 75 139 7.0 19.0 0.00 0.01 0.00 69 1009.1
20260830104504 76 139 8.0 19.0 0.00 0.01 0.00 63 1009.1
20260830104025 76 135 7.0 16.0 0.00 0.01 0.00 65 1009.1
20260830103503 76 132 7.0 16.0 0.00 0.01 0.00 65 1009.1
20260830103004 75 135 7.0 16.0 0.00 0.01 0.00 69 1009.2
20260830102504 75 138 6.0 17.0 0.00 0.02 0.00 69 1009.4
20260830102003 74 138 6.0 17.0 0.00 0.02 0.00 69 1009.4
20260830101504 73 135 6.0 16.0 0.00 0.02 0.00 70 1009.4
20260830101003 73 135 6.0 15.0 0.00 0.02 0.00 69 1009.5
20260830100524 73 134 7.0 15.0 0.00 0.02 0.00 67 1009.3
20260830100004 74 133 6.0 15.0 0.00 0.02 0.00 67 1009.4
20260830095504 73 136 6.0 16.0 0.00 0.02 0.00 69 1009.6
20260830095024 74 135 6.0 16.0 0.00 0.02 0.00 67 1009.5
20260830094504 73 135 7.0 14.0 0.00 0.02 0.00 70 1009.6
20260830094006 72 136 7.0 15.0 0.00 0.02 0.00 70 1009.4
20260830093503 73 136 6.0 15.0 0.00 0.02 0.00 69 1009.6
20260830093004 73 139 7.0 17.0 0.00 0.02 0.00 70 1009.7
20260830092505 71 140 8.0 17.0 0.00 0.02 0.00 73 1009.7
20260830092005 71 136 7.0 17.0 0.00 0.02 0.00 69 1009.8
20260830091505 72 136 6.0 15.0 0.00 0.02 0.00 69 1009.8
20260830091006 72 137 6.0 15.0 0.00 0.02 0.00 70 1009.7
20260830090506 71 136 6.0 15.0 0.00 0.02 0.00 71 1009.7
20260830090006 70 132 6.0 14.0 0.00 0.02 0.00 73 1009.7
20260830085526 69 131 6.0 17.0 0.00 0.02 0.00 73 1009.9
20260830085006 70 133 6.0 17.0 0.00 0.02 0.00 73 1009.8
20260830084504 69 137 7.0 15.0 0.00 0.02 0.00 74 1009.8
20260830084005 69 137 6.0 11.0 0.00 0.02 0.00 77 1009.9
20260830083504 69 136 6.0 13.0 0.00 0.02 0.00 76 1009.8
20260830083005 68 137 6.0 13.0 0.00 0.02 0.00 76 1009.9
20260830082505 68 135 6.0 11.0 0.00 0.02 0.00 75 1009.9
20260830082026 68 130 6.0 11.0 0.00 0.02 0.00 77 1010.0
20260830081504 67 131 5.0 13.0 0.00 0.02 0.00 79 1009.9
20260830081004 67 137 6.0 13.0 0.00 0.02 0.00 79 1009.9
20260830080505 67 142 6.0 13.0 0.00 0.02 0.00 77 1010.0
20260830080025 67 144 6.0 14.0 0.00 0.02 0.00 78 1009.9
20260830075505 67 144 6.0 14.0 0.00 0.02 0.00 78 1009.9
20260830075005 67 143 6.0 13.0 0.00 0.02 0.00 77 1009.9
20260830074504 67 138 6.0 15.0 0.00 0.02 0.00 79 1009.7
20260830074005 67 134 6.0 15.0 0.00 0.02 0.00 79 1009.5
20260830073504 67 133 6.0 10.0 0.00 0.02 0.00 77 1009.9
20260830073004 66 137 6.0 13.0 0.00 0.02 0.00 82 1009.7
20260830072505 65 143 5.0 13.0 0.00 0.02 0.00 81 1010.0
20260830072005 65 144 5.0 10.0 0.00 0.02 0.00 82 1009.7
20260830071505 65 142 5.0 11.0 0.00 0.02 0.00 83 1009.8
20260830071004 65 140 5.0 13.0 0.00 0.02 0.00 82 1009.6
20260830070504 65 138 5.0 13.0 0.00 0.02 0.00 82 1010.0
20260830070005 65 142 5.0 13.0 0.00 0.02 0.00 83 1009.8
20260830065526 64 140 5.0 13.0 0.00 0.02 0.00 83 1010.0
20260830065006 64 139 5.0 9.0 0.00 0.02 0.00 84 1009.8
20260830064504 63 141 5.0 9.0 0.00 0.02 0.00 84 1009.8
20260830064005 63 139 5.0 10.0 0.00 0.02 0.00 83 1009.8
20260830063525 63 141 5.0 10.0 0.00 0.03 0.00 84 1009.9
20260830063006 64 143 5.0 13.0 0.00 0.03 0.00 84 1009.8
20260830062505 63 144 5.0 13.0 0.00 0.03 0.00 84 1010.0
20260830062006 63 143 6.0 13.0 0.00 0.04 0.00 84 1010.0
20260830061506 63 140 6.0 13.0 0.00 0.06 0.00 83 1010.0
20260830061005 63 139 5.0 10.0 0.00 0.07 0.00 86 1009.9
20260830060504 62 137 5.0 10.0 0.00 0.08 0.00 85 1010.0
20260830060006 62 133 5.0 10.0 0.00 0.09 0.00 86 1009.9
20260830055525 62 131 5.0 11.0 0.00 0.10 0.00 86 1010.1
20260830055004 62 133 5.0 11.0 0.00 0.11 0.00 86 1010.0
20260830054525 62 134 5.0 10.0 0.00 0.12 0.00 87 1010.0
20260830054004 61 137 5.0 9.0 0.00 0.13 0.00 87 1010.1
20260830053504 61 141 5.0 9.0 0.00 0.14 0.00 88 1010.2
20260830053005 61 139 5.0 10.0 0.00 0.15 0.00 88 1010.1
20260830052505 61 138 5.0 10.0 0.00 0.15 0.00 88 1010.2
20260830052004 61 137 5.0 10.0 0.00 0.16 0.00 89 1010.2
20260830051504 61 134 5.0 10.0 0.00 0.16 0.00 89 1010.1
20260830051026 60 134 5.0 10.0 0.00 0.17 0.00 89 1010.2
20260830050504 60 131 5.0 9.0 0.00 0.17 0.00 89 1010.1
20260830050004 60 129 5.0 9.0 0.00 0.17 0.00 90 1010.3
20260830045505 60 132 5.0 8.0 0.00 0.17 0.00 91 1010.3
20260830045006 60 133 4.0 10.0 0.00 0.18 0.00 91 1010.2
20260830044505 60 131 4.0 10.0 0.00 0.19 0.00 91 1010.3
20260830044025 59 132 4.0 10.0 0.00 0.20 0.00 92 1010.4
20260830043505 59 134 4.0 9.0 0.00 0.21 0.00 92 1010.3
20260830043005 59 135 4.0 9.0 0.00 0.22 0.00 93 1010.3
20260830042504 59 134 4.0 9.0 0.00 0.22 0.00 93 1010.4